FW2692 Weather Reports


time (UTC)temp
C
wind
direction
speed
KPH
gust
KPH
rain 1hr
cm
rain 24hr
cm
rain mn
cm
humidity
%
barometer
mb
20260901214504 23 303 9.7 19.3 0.00 0.00 0.00 42 1013.2
20260901214004 23 303 9.7 24.1 0.00 0.00 0.00 43 1013.2
20260901213504 23 294 9.7 24.1 0.00 0.00 0.00 42 1013.2
20260901213004 23 295 8.0 17.7 0.00 0.00 0.00 43 1013.2
20260901212504 23 295 8.0 19.3 0.00 0.00 0.00 41 1013.2
20260901212004 23 287 9.7 19.3 0.00 0.00 0.00 42 1013.2
20260901211525 23 290 9.7 24.1 0.00 0.00 0.00 41 1013.2
20260901211004 23 306 8.0 24.1 0.00 0.00 0.00 42 1013.1
20260901210504 23 313 4.8 14.5 0.00 0.00 0.00 41 1013.2
20260901210005 23 303 3.2 14.5 0.00 0.00 0.00 41 1013.3
20260901205525 23 318 4.8 12.9 0.00 0.00 0.00 41 1013.3
20260901205004 23 317 4.8 17.7 0.00 0.00 0.00 41 1013.4
20260901204504 23 311 4.8 17.7 0.00 0.00 0.00 41 1013.5
20260901204005 23 285 6.4 16.1 0.00 0.00 0.00 42 1013.6
20260901203504 23 288 8.0 16.1 0.00 0.00 0.00 42 1013.6
20260901203004 23 308 4.8 16.1 0.00 0.00 0.00 41 1013.6
20260901202504 23 316 3.2 9.7 0.00 0.00 0.00 41 1013.6
20260901202004 23 277 4.8 19.3 0.00 0.00 0.00 41 1013.7
20260901201504 23 269 6.4 19.3 0.00 0.00 0.00 42 1013.8
20260901201004 23 293 3.2 14.5 0.00 0.00 0.00 40 1013.8
20260901200526 23 327 4.8 19.3 0.00 0.00 0.00 41 1013.8
20260901200005 23 326 8.0 19.3 0.00 0.00 0.00 42 1013.9
20260901195504 23 320 4.8 19.3 0.00 0.00 0.00 42 1013.8
20260901195004 23 318 3.2 12.9 0.00 0.00 0.00 42 1013.9
20260901194504 23 285 4.8 12.9 0.00 0.00 0.00 42 1013.9
20260901194004 22 221 4.8 12.9 0.00 0.00 0.00 43 1013.9
20260901193525 22 264 4.8 14.5 0.00 0.00 0.00 43 1014.0
20260901193005 22 306 6.4 20.9 0.00 0.00 0.00 42 1014.1
20260901192504 22 318 4.8 20.9 0.00 0.00 0.00 43 1014.2
20260901192004 22 311 3.2 17.7 0.00 0.00 0.00 44 1014.2
20260901191504 22 290 6.4 16.1 0.00 0.00 0.00 44 1014.3
20260901191004 22 269 6.4 16.1 0.00 0.00 0.00 44 1014.3
20260901190525 22 266 6.4 17.7 0.00 0.00 0.00 44 1014.3
20260901190025 22 277 6.4 17.7 0.00 0.00 0.00 44 1014.4
20260901185505 22 288 4.8 14.5 0.00 0.00 0.00 43 1014.3
20260901185004 23 239 3.2 11.3 0.00 0.00 0.00 41 1014.4
20260901184504 23 157 1.6 6.4 0.00 0.00 0.00 41 1014.4
20260901184004 23 134 3.2 11.3 0.00 0.00 0.00 42 1014.4
20260901183526 23 108 6.4 16.1 0.00 0.00 0.00 41 1014.4
20260901183025 23 93 6.4 16.1 0.00 0.00 0.00 41 1014.4
20260901182504 23 82 4.8 9.7 0.00 0.00 0.00 42 1014.4
20260901182004 23 97 4.8 16.1 0.00 0.00 0.00 43 1014.4
20260901181504 23 100 4.8 16.1 0.00 0.00 0.00 44 1014.5
20260901181004 23 104 4.8 14.5 0.00 0.00 0.00 44 1014.5
20260901180525 23 105 3.2 12.9 0.00 0.00 0.00 45 1014.4
20260901180004 22 120 3.2 12.9 0.00 0.00 0.00 47 1014.5
20260901175504 22 153 3.2 11.3 0.00 0.00 0.00 49 1014.5
20260901175004 21 205 1.6 6.4 0.00 0.00 0.00 49 1014.4
20260901174504 21 240 1.6 11.3 0.00 0.00 0.00 47 1014.4
20260901174025 21 295 3.2 11.3 0.00 0.00 0.00 48 1014.4
20260901173504 20 280 4.8 11.3 0.00 0.00 0.00 48 1014.3
20260901173004 20 248 4.8 11.3 0.00 0.00 0.00 48 1014.3
20260901172525 21 229 3.2 8.0 0.00 0.00 0.00 47 1014.2
20260901172025 21 178 4.8 11.3 0.00 0.00 0.00 48 1014.2
20260901171504 21 185 6.4 16.1 0.00 0.00 0.00 50 1014.3
20260901171004 20 289 4.8 16.1 0.00 0.00 0.00 48 1014.2
20260901170525 20 251 4.8 14.5 0.00 0.00 0.00 50 1014.2
20260901170004 20 221 6.4 16.1 0.00 0.00 0.00 52 1014.2
20260901165504 20 268 9.7 24.1 0.00 0.00 0.00 55 1014.2
20260901165025 20 319 6.4 24.1 0.00 0.00 0.00 53 1014.1
20260901164525 20 49 3.2 16.1 0.00 0.00 0.00 52 1014.2
20260901164004 20 80 1.6 9.7 0.00 0.00 0.00 54 1014.2
20260901163525 20 88 3.2 8.0 0.00 0.00 0.00 55 1014.2
20260901163004 20 102 3.2 9.7 0.00 0.00 0.00 55 1014.2
20260901162504 20 92 3.2 9.7 0.00 0.00 0.00 56 1014.2
20260901162004 20 64 3.2 11.3 0.00 0.00 0.00 56 1014.1
20260901161525 19 68 3.2 11.3 0.00 0.00 0.00 58 1014.0
20260901161025 19 68 3.2 8.0 0.00 0.00 0.00 59 1014.0
20260901160525 19 70 3.2 8.0 0.00 0.00 0.00 59 1014.0
20260901160004 19 97 3.2 11.3 0.00 0.00 0.00 59 1013.9
20260901155504 18 92 3.2 11.3 0.00 0.00 0.00 60 1013.9
20260901155025 18 54 1.6 9.7 0.00 0.00 0.00 61 1013.8
20260901154504 18 54 3.2 9.7 0.00 0.00 0.00 61 1013.8
20260901154004 18 95 3.2 9.7 0.00 0.00 0.00 62 1013.8
20260901153504 18 119 3.2 11.3 0.00 0.00 0.00 63 1013.8
20260901153004 17 112 4.8 12.9 0.00 0.00 0.00 63 1013.7
20260901152504 17 101 3.2 12.9 0.00 0.00 0.00 63 1013.7
20260901152025 17 89 3.2 11.3 0.00 0.00 0.00 64 1013.7
20260901151504 17 92 4.8 14.5 0.00 0.00 0.00 65 1013.6
20260901151004 16 95 4.8 14.5 0.00 0.00 0.00 66 1013.6
20260901150525 16 98 4.8 14.5 0.00 0.00 0.00 65 1013.6
20260901150025 16 106 4.8 9.7 0.00 0.00 0.00 67 1013.5
20260901145504 16 101 4.8 9.7 0.00 0.00 0.00 67 1013.4
20260901145004 15 97 4.8 11.3 0.00 0.00 0.00 68 1013.3
20260901144504 15 99 4.8 11.3 0.00 0.00 0.00 68 1013.3
20260901144003 15 98 4.8 11.3 0.00 0.00 0.00 68 1013.2
20260901143504 15 100 4.8 11.3 0.00 0.00 0.00 67 1013.2
20260901143025 15 114 3.2 9.7 0.00 0.00 0.00 69 1013.1
20260901142525 15 127 1.6 4.8 0.00 0.00 0.00 69 1013.0
20260901142004 15 114 1.6 6.4 0.00 0.00 0.00 69 1012.9
20260901141504 15 113 3.2 6.4 0.00 0.00 0.00 68 1012.9
20260901141025 15 117 3.2 9.7 0.00 0.00 0.00 68 1012.7
20260901140504 15 169 3.2 9.7 0.00 0.00 0.00 67 1012.7
20260901140004 15 245 1.6 8.0 0.00 0.00 0.00 67 1012.6
20260901135504 15 261 1.6 4.8 0.00 0.00 0.00 67 1012.6
20260901135004 15 261 1.6 4.8 0.00 0.00 0.00 67 1012.4
20260901134504 15 261 0.0 3.2 0.00 0.00 0.00 67 1012.4
20260901134004 15 261 0.0 3.2 0.00 0.00 0.00 67 1012.3
20260901133503 15 261 0.0 3.2 0.00 0.00 0.00 67 1012.3
20260901133004 15 261 0.0 3.2 0.00 0.00 0.00 67 1012.2
20260901132503 15 261 0.0 3.2 0.00 0.00 0.00 67 1012.2
20260901132003 15 261 1.6 4.8 0.00 0.00 0.00 66 1012.1
20260901131503 15 260 1.6 4.8 0.00 0.00 0.00 66 1012.1
20260901131024 15 248 1.6 4.8 0.00 0.00 0.00 66 1012.1
20260901130503 15 245 3.2 12.9 0.00 0.00 0.00 66 1012.0
20260901130004 15 251 1.6 12.9 0.00 0.00 0.00 66 1012.1
20260901125524 15 277 1.6 6.4 0.00 0.00 0.00 67 1012.1
20260901125003 15 284 1.6 6.4 0.00 0.00 0.00 66 1012.1
20260901124504 15 261 1.6 14.5 0.00 0.00 0.00 66 1012.0
20260901124003 16 257 4.8 17.7 0.00 0.00 0.00 66 1011.9
20260901123503 16 253 4.8 17.7 0.00 0.00 0.00 66 1012.0
20260901123003 16 253 3.2 12.9 0.00 0.00 0.00 66 1012.0
20260901122503 16 249 3.2 12.9 0.00 0.00 0.00 66 1011.8
20260901122004 16 241 3.2 12.9 0.00 0.00 0.00 66 1011.9
20260901121503 15 237 3.2 11.3 0.00 0.00 0.00 66 1011.9
20260901121003 15 261 1.6 11.3 0.00 0.00 0.00 66 1011.9
20260901120503 16 291 1.6 8.0 0.00 0.00 0.00 66 1012.0
20260901120004 16 268 4.8 16.1 0.00 0.00 0.00 66 1012.0
20260901115524 16 254 6.4 16.1 0.00 0.00 0.00 66 1012.0
20260901115024 16 256 8.0 17.7 0.00 0.00 0.00 67 1011.9
20260901114503 16 259 8.0 17.7 0.00 0.00 0.00 67 1012.0
20260901114003 15 254 4.8 16.1 0.00 0.00 0.00 68 1011.9
20260901113503 15 249 3.2 12.9 0.00 0.00 0.00 68 1011.9
20260901113003 15 246 1.6 11.3 0.00 0.00 0.00 69 1011.8
20260901112503 15 196 0.0 8.0 0.00 0.00 0.00 69 1011.6
20260901112003 15 210 1.6 8.0 0.00 0.00 0.00 69 1011.5
20260901111524 15 259 0.0 14.5 0.00 0.00 0.00 68 1011.6
20260901111024 15 321 0.0 14.5 0.00 0.00 0.00 68 1011.5
20260901110503 15 293 3.2 14.5 0.00 0.00 0.00 68 1011.5
20260901110004 15 282 6.4 14.5 0.00 0.00 0.00 69 1011.6
20260901105524 15 280 4.8 14.5 0.00 0.00 0.00 70 1011.6
20260901105003 15 298 3.2 9.7 0.00 0.00 0.00 72 1011.6
20260901104503 15 309 1.6 4.8 0.00 0.00 0.00 72 1011.7
20260901104024 15 271 3.2 12.9 0.00 0.00 0.00 72 1011.6
20260901103503 15 255 3.2 14.5 0.00 0.00 0.00 71 1011.5
20260901103003 14 230 1.6 14.5 0.00 0.00 0.00 75 1011.6
20260901102503 14 130 0.0 1.6 0.00 0.00 0.00 75 1011.5
20260901102003 14 0 0.0 0.0 0.00 0.00 0.00 76 1011.4
20260901101503 14 0 0.0 1.6 0.00 0.00 0.00 75 1011.4
20260901101003 14 0 0.0 1.6 0.00 0.00 0.00 74 1011.4
20260901100503 15 0 0.0 0.0 0.00 0.00 0.00 73 1011.3
20260901100024 15 0 0.0 0.0 0.00 0.00 0.00 72 1011.2
20260901095504 15 0 0.0 0.0 0.00 0.00 0.00 70 1011.2
20260901095003 15 125 0.0 4.8 0.00 0.00 0.00 68 1011.2
20260901094503 16 147 0.0 4.8 0.00 0.00 0.00 67 1011.1
20260901094004 16 194 1.6 14.5 0.00 0.00 0.00 65 1011.1
20260901093524 16 182 4.8 14.5 0.00 0.00 0.00 64 1011.1
20260901093003 16 170 4.8 12.9 0.00 0.00 0.00 65 1011.0
20260901092504 16 179 4.8 12.9 0.00 0.00 0.00 64 1011.0
20260901092003 16 193 4.8 12.9 0.00 0.00 0.00 64 1011.0
20260901091503 16 215 3.2 12.9 0.00 0.00 0.00 64 1011.0
20260901091004 16 235 3.2 16.1 0.00 0.00 0.00 65 1011.0
20260901090503 16 247 4.8 16.1 0.00 0.00 0.00 65 1010.9
20260901090003 16 254 6.4 19.3 0.00 0.00 0.00 65 1011.0
20260901085503 16 260 4.8 19.3 0.00 0.00 0.00 66 1011.0
20260901085003 16 261 8.0 19.3 0.00 0.00 0.00 66 1011.1
20260901084504 16 258 9.7 24.1 0.00 0.00 0.00 67 1011.1
20260901084003 16 258 8.0 24.1 0.00 0.00 0.00 67 1011.1
20260901083503 16 248 6.4 14.5 0.00 0.00 0.00 67 1011.0
20260901083003 16 243 8.0 16.1 0.00 0.00 0.00 67 1011.0
20260901082503 16 243 8.0 16.1 0.00 0.00 0.00 68 1011.0
20260901082003 16 243 8.0 16.1 0.00 0.00 0.00 68 1011.0
20260901081524 16 245 6.4 17.7 0.00 0.00 0.00 68 1011.1
20260901081003 16 248 4.8 17.7 0.00 0.00 0.00 68 1011.1
20260901080503 16 262 3.2 11.3 0.00 0.00 0.00 68 1011.1
20260901080003 16 256 6.4 16.1 0.00 0.00 0.00 68 1011.0
20260901075503 16 252 8.0 16.1 0.00 0.00 0.00 68 1011.0
20260901075003 16 250 6.4 16.1 0.00 0.00 0.00 68 1010.9
20260901074504 16 252 4.8 17.7 0.00 0.00 0.00 69 1011.0
20260901074003 16 262 6.4 20.9 0.00 0.00 0.00 68 1011.0
20260901073503 16 272 4.8 20.9 0.00 0.00 0.00 68 1011.0
20260901073024 16 275 4.8 16.1 0.00 0.00 0.00 68 1011.0
20260901072503 16 285 6.4 16.1 0.00 0.00 0.00 68 1011.0
20260901072003 16 285 8.0 17.7 0.00 0.00 0.00 68 1010.9
20260901071503 16 285 9.7 27.4 0.00 0.00 0.00 68 1010.9
20260901071003 16 305 9.7 27.4 0.00 0.00 0.00 68 1010.8
20260901070503 16 299 9.7 17.7 0.00 0.00 0.00 69 1010.9
20260901070004 16 274 9.7 24.1 0.00 0.00 0.00 69 1010.8
20260901065503 16 278 9.7 24.1 0.00 0.00 0.00 69 1010.8
20260901065003 16 281 9.7 22.5 0.00 0.00 0.00 69 1010.8
20260901064503 16 278 11.3 25.7 0.00 0.00 0.00 69 1010.9
20260901064003 16 269 14.5 29.0 0.00 0.00 0.00 69 1010.9
20260901063503 16 263 16.1 29.0 0.00 0.00 0.00 69 1010.8
20260901063024 16 265 16.1 29.0 0.00 0.00 0.00 69 1010.9
20260901062504 16 267 16.1 32.2 0.00 0.00 0.00 69 1010.9
20260901062003 16 265 16.1 32.2 0.00 0.00 0.00 69 1010.9
20260901061503 16 262 16.1 29.0 0.00 0.00 0.00 69 1010.9
20260901061003 16 265 16.1 29.0 0.00 0.00 0.00 69 1010.9
20260901060524 16 265 16.1 25.7 0.00 0.00 0.00 69 1010.9
20260901060006 17 263 16.1 29.0 0.00 0.00 0.00 68 1010.8
20260901055506 17 265 16.1 29.0 0.00 0.00 0.00 68 1010.8
20260901055006 17 263 12.9 27.4 0.00 0.00 0.00 68 1010.8
20260901054506 16 265 11.3 27.4 0.00 0.00 0.00 68 1010.8
20260901054006 17 273 11.3 20.9 0.00 0.00 0.00 68 1010.8
20260901053506 17 271 11.3 25.7 0.00 0.00 0.00 68 1010.7
20260901053006 17 270 14.5 27.4 0.00 0.00 0.00 68 1010.6
20260901052527 16 270 16.1 27.4 0.00 0.00 0.00 69 1010.6
20260901052006 16 269 14.5 25.7 0.00 0.00 0.00 69 1010.6
20260901051506 16 273 14.5 27.4 0.00 0.00 0.00 69 1010.6
20260901051006 16 273 16.1 29.0 0.00 0.00 0.00 69 1010.6
20260901050506 16 271 16.1 29.0 0.00 0.00 0.00 69 1010.5
20260901050006 17 272 14.5 25.7 0.00 0.00 0.00 69 1010.5
20260901045527 17 268 14.5 25.7 0.00 0.00 0.00 68 1010.4
20260901045027 17 266 14.5 27.4 0.00 0.00 0.00 68 1010.4
20260901044507 17 263 16.1 30.6 0.00 0.00 0.00 68 1010.3
20260901044027 17 259 16.1 30.6 0.00 0.00 0.00 68 1010.3
20260901043527 17 259 14.5 27.4 0.00 0.00 0.00 68 1010.4
20260901043006 17 260 14.5 24.1 0.00 0.00 0.00 68 1010.2
20260901042506 17 262 16.1 30.6 0.00 0.00 0.00 68 1010.2
20260901042027 17 264 17.7 30.6 0.00 0.00 0.00 68 1010.1
20260901041527 17 264 16.1 30.6 0.00 0.00 0.00 68 1010.1
20260901041027 17 260 16.1 27.4 0.00 0.00 0.00 67 1010.2
20260901040506 17 259 16.1 29.0 0.00 0.00 0.00 67 1010.1
20260901040027 17 260 16.1 30.6 0.00 0.00 0.00 67 1010.1
20260901035506 17 262 12.9 30.6 0.00 0.00 0.00 67 1010.0
20260901035006 17 270 8.0 25.7 0.00 0.00 0.00 66 1010.0
20260901034527 17 266 9.7 27.4 0.00 0.00 0.00 66 1009.9
20260901034006 17 252 14.5 27.4 0.00 0.00 0.00 66 1009.7
20260901033506 17 251 16.1 27.4 0.00 0.00 0.00 66 1009.7
20260901033026 18 264 11.3 27.4 0.00 0.00 0.00 65 1009.6
20260901032506 18 272 9.7 24.1 0.00 0.00 0.00 64 1009.5
20260901032006 18 262 12.9 27.4 0.00 0.00 0.00 64 1009.4
20260901031505 18 262 14.5 27.4 0.00 0.00 0.00 64 1009.3
20260901031006 18 262 12.9 27.4 0.00 0.00 0.00 63 1009.2
20260901030505 18 260 14.5 29.0 0.00 0.00 0.00 63 1009.2
20260901030006 18 266 16.1 29.0 0.00 0.00 0.00 63 1009.2
20260901025506 18 272 16.1 27.4 0.00 0.00 0.00 62 1009.2
20260901025006 18 270 14.5 25.7 0.00 0.00 0.00 62 1009.0
20260901024527 18 272 12.9 27.4 0.00 0.00 0.00 61 1009.1
20260901024006 19 278 11.3 27.4 0.00 0.00 0.00 60 1009.2
20260901023526 19 288 9.7 20.9 0.00 0.00 0.00 60 1009.0
20260901023005 20 299 11.3 22.5 0.00 0.00 0.00 59 1008.9
20260901022506 20 307 11.3 22.5 0.00 0.00 0.00 58 1009.0
20260901022026 20 308 9.7 22.5 0.00 0.00 0.00 58 1008.9
20260901021506 21 304 6.4 19.3 0.00 0.00 0.00 57 1008.9
20260901021026 21 283 4.8 19.3 0.00 0.00 0.00 55 1009.0
20260901020506 21 256 3.2 16.1 0.00 0.00 0.00 55 1008.9
20260901020026 21 261 4.8 19.3 0.00 0.00 0.00 55 1008.8
20260901015506 21 259 8.0 20.9 0.00 0.00 0.00 55 1008.8
20260901015005 21 255 8.0 20.9 0.00 0.00 0.00 54 1008.9
20260901014506 21 256 9.7 22.5 0.00 0.00 0.00 54 1008.8
20260901014005 22 256 9.7 22.5 0.00 0.00 0.00 53 1008.8
20260901013506 22 255 11.3 25.7 0.00 0.00 0.00 52 1008.8
20260901013026 22 257 12.9 25.7 0.00 0.00 0.00 52 1008.7
20260901012506 22 253 12.9 27.4 0.00 0.00 0.00 52 1008.8
20260901012005 23 252 9.7 27.4 0.00 0.00 0.00 50 1008.8
20260901011505 23 253 8.0 20.9 0.00 0.00 0.00 48 1008.7
20260901011005 23 254 9.7 20.9 0.00 0.00 0.00 48 1008.7
20260901010505 23 253 11.3 20.9 0.00 0.00 0.00 48 1008.5
20260901010005 24 249 12.9 20.9 0.00 0.00 0.00 48 1008.5
20260901005505 24 250 12.9 20.9 0.00 0.00 0.00 47 1008.5
20260901005005 24 254 11.3 20.9 0.00 0.00 0.00 47 1008.4
20260901004505 25 258 9.7 19.3 0.00 0.00 0.00 46 1008.4
20260901004005 25 257 11.3 19.3 0.00 0.00 0.00 46 1008.4
20260901003505 25 252 12.9 22.5 0.00 0.00 0.00 46 1008.5
20260901003026 25 245 9.7 22.5 0.00 0.00 0.00 44 1008.5
20260901002526 26 243 9.7 24.1 0.00 0.00 0.00 44 1008.4
20260901002005 25 244 9.7 24.1 0.00 0.00 0.00 44 1008.6
20260901001505 25 247 11.3 27.4 0.00 0.00 0.00 45 1008.6
20260901001005 25 249 14.5 27.4 0.00 0.00 0.00 45 1008.6
20260901000505 25 246 14.5 24.1 0.00 0.00 0.00 44 1008.6
20260901000026 25 250 14.5 25.7 0.00 0.00 0.00 44 1008.5
20260831235505 26 252 14.5 27.4 0.00 0.00 0.00 43 1008.5
20260831235005 26 251 12.9 27.4 0.00 0.00 0.00 43 1008.5
20260831234505 26 251 11.3 22.5 0.00 0.00 0.00 43 1008.5
20260831234005 26 249 12.9 25.7 0.00 0.00 0.00 43 1008.6
20260831233526 26 252 11.3 25.7 0.00 0.00 0.00 42 1008.7
20260831233005 26 255 11.3 22.5 0.00 0.00 0.00 42 1008.7
20260831232505 26 255 12.9 24.1 0.00 0.00 0.00 42 1008.7
20260831232005 26 256 11.3 24.1 0.00 0.00 0.00 42 1008.7
20260831231505 26 261 11.3 24.1 0.00 0.00 0.00 41 1008.8
20260831231005 27 266 8.0 22.5 0.00 0.00 0.00 41 1008.8
20260831230505 26 272 8.0 19.3 0.00 0.00 0.00 42 1008.8
20260831230005 26 265 11.3 20.9 0.00 0.00 0.00 42 1008.8
20260831225526 26 252 12.9 24.1 0.00 0.00 0.00 43 1008.8
20260831225005 26 249 14.5 24.1 0.00 0.00 0.00 43 1008.9
20260831224505 26 250 14.5 22.5 0.00 0.00 0.00 43 1008.9
20260831224005 26 252 12.9 22.5 0.00 0.00 0.00 42 1009.0
20260831223505 26 251 9.7 20.9 0.00 0.00 0.00 42 1009.0
20260831223005 26 253 9.7 19.3 0.00 0.00 0.00 42 1008.9
20260831222505 26 253 9.7 19.3 0.00 0.00 0.00 42 1009.0
20260831222005 26 252 9.7 19.3 0.00 0.00 0.00 42 1009.1
20260831221505 26 255 11.3 19.3 0.00 0.00 0.00 42 1009.2
20260831221005 26 257 12.9 22.5 0.00 0.00 0.00 43 1009.2
20260831220505 26 259 12.9 22.5 0.00 0.00 0.00 42 1009.4
20260831220005 26 258 12.9 22.5 0.00 0.00 0.00 43 1009.4
20260831215505 25 255 11.3 22.5 0.00 0.00 0.00 44 1009.5
20260831215005 26 251 11.3 30.6 0.00 0.00 0.00 43 1009.5